Abilene, TX

10:52 AM CDT on July 23, 2017 (GMT -0500)
Abilene Regional

Weather History for KABI - November, 2013

Change the Weather History Date:

Saturday, November 9, 2013

  Actual Average Record
Temperature  
Mean Temperature 61 °F 58 °F  
Max Temperature 74 °F 69 °F 90 °F (2006)
Min Temperature 48 °F 46 °F 27 °F (1956)
Degree Days  
Heating Degree Days 4 8  
Month to date heating degree days 70 65  
Since 1 July heating degree days 149 169  
Cooling Degree Days 0 1  
Month to date cooling degree days 3 11  
Year to date cooling degree days 2712 2400  
Growing Degree Days 10 (Base 50)    
Moisture  
Dew Point 45 °F    
Average Humidity 59    
Maximum Humidity 80    
Minimum Humidity 38    
Precipitation  
Precipitation 0.00 in 0.05 in 1.12 in (1952)
Month to date precipitation 0.02 0.53  
Year to date precipitation 20.93 22.71  
Sea Level Pressure  
Sea Level Pressure 30.06 in    
Wind  
Wind Speed 12 mph (South)    
Max Wind Speed 20 mph    
Max Gust Speed 24 mph    
Visibility 10 miles    
Events      
T = Trace of Precipitation, MM = Missing Value Source: NWS Daily Summary

Daily Weather History Graph

Daily Weather History Graph

Search for Another Location

Airport or City:

Trip Planner

Search our weather history database for the weather conditions in past years. The results will help you decide how hot, cold, wet, or windy it might be!

Date:

Astronomy

Nov. 09, 2013 Rise Set
Actual Time 7:03 AM CST 5:41 PM CST
Civil Twilight 6:37 AM CST 6:07 PM CST
Nautical Twilight 6:07 AM CST 6:36 PM CST
Astronomical Twilight 5:38 AM CST 7:05 PM CST
Moon 12:44 PM CST (11/9) No Moon Set
Length of Visible Light 11h 30m
Length of Day
10h 38m
Waxing Crescent, 44% of the Moon is Illuminated
Nov 9
Waxing Crescent
Nov 9
First Quarter
Nov 17
Full
Nov 25
Last Quarter
Dec 2
New

Hourly Weather History & Observations

Time (CST) Temp. Dew Point Humidity Pressure Visibility Wind Dir Wind Speed Gust Speed Precip Events Conditions
12:52 AM 50.0 °F 39.9 °F 68% 30.07 in 10.0 mi South 11.5 mph - N/A   Clear
1:52 AM 48.0 °F 39.9 °F 74% 30.06 in 10.0 mi South 8.1 mph - N/A   Clear
2:52 AM 48.0 °F 41.0 °F 77% 30.05 in 10.0 mi South 9.2 mph - N/A   Clear
3:52 AM 50.0 °F 41.0 °F 71% 30.04 in 10.0 mi SSW 11.5 mph - N/A   Mostly Cloudy
4:52 AM 50.0 °F 39.0 °F 66% 30.04 in 10.0 mi South 13.8 mph - N/A   Clear
5:52 AM 50.0 °F 39.0 °F 66% 30.05 in 10.0 mi SSW 16.1 mph - N/A   Clear
6:52 AM 50.0 °F 37.9 °F 63% 30.06 in 10.0 mi South 11.5 mph 18.4 mph N/A   Clear
7:52 AM 50.0 °F 39.0 °F 66% 30.07 in 10.0 mi South 10.4 mph - N/A   Clear
8:52 AM 53.1 °F 39.9 °F 61% 30.07 in 10.0 mi SSW 15.0 mph - N/A   Clear
9:52 AM 57.0 °F 42.1 °F 57% 30.08 in 10.0 mi SSW 16.1 mph 24.2 mph N/A   Clear
10:52 AM 61.0 °F 44.1 °F 54% 30.07 in 10.0 mi SSW 12.7 mph - N/A   Clear
11:52 AM 64.9 °F 46.0 °F 50% 30.05 in 10.0 mi South 10.4 mph - N/A   Clear
12:52 PM 68.0 °F 46.9 °F 47% 30.03 in 10.0 mi South 13.8 mph - N/A   Clear
1:52 PM 71.1 °F 46.9 °F 42% 30.01 in 10.0 mi South 13.8 mph - N/A   Clear
2:52 PM 73.0 °F 46.9 °F 39% 30.00 in 10.0 mi SSW 10.4 mph - N/A   Clear
3:52 PM 73.0 °F 48.0 °F 41% 30.00 in 10.0 mi SSE 10.4 mph - N/A   Clear
4:52 PM 72.0 °F 48.0 °F 43% 30.02 in 10.0 mi SSE 11.5 mph - N/A   Clear
5:52 PM 64.9 °F 48.0 °F 54% 30.04 in 10.0 mi SE 6.9 mph - N/A   Clear
6:52 PM 60.1 °F 48.0 °F 64% 30.07 in 10.0 mi SE 8.1 mph - N/A   Clear
7:52 PM 60.1 °F 48.0 °F 64% 30.09 in 10.0 mi SSE 9.2 mph - N/A   Clear
8:52 PM 60.1 °F 52.0 °F 75% 30.10 in 10.0 mi SSE 15.0 mph - N/A   Clear
9:52 PM 59.0 °F 52.0 °F 78% 30.11 in 10.0 mi SSE 13.8 mph - N/A   Clear
10:52 PM 57.0 °F 52.0 °F 83% 30.12 in 10.0 mi SSE 11.5 mph - N/A   Clear
11:52 PM 55.0 °F 51.1 °F 86% 30.14 in 10.0 mi SSE 8.1 mph - N/A   Clear